METEOR 1-10

Satellite information

Favourite Embed

Satellite Type and Status

PAYLOADIN ORBIT

Key statistics

Satellite METEOR 1-10 at a glance.

Uptime

19547

Days in orbit

Revolutions

≈ 14.1

Per day

Orbit

LEO

Low Earth Orbit

Inclination

81.3

Latest

Satellite identification and parameters

Extended collection of information and parameters for METEOR 1-10.

Object identification

Identified? True

Debris? False

Object name: METEOR 1-10

International designator: 1971-120A

Object number (NORAD): 5731

Object ID (CCSDS): 5731

Country: COMMONWEALTH OF INDEPENDENT STATES (CIS)

Current information (Y/N): Y

RCS size: LARGE

Orbital parameters

Period: 101.995 minutes

Inclination: 81.2592 deg

SMA: 7231.263 km

Apoapsis: 869.51 km

Periapsis: 836.747 km

RAAN: 359.1613 deg

Eccentricy: 0.0022654

Argument of periapsis: 326.5133 deg

Mean anomaly: 33.4605 deg

Mean motion: 14.11826999 rev/day

Mean motion (dot): 0.00000198 rev/day2

B* drag term: 0.00010142 1/REarth

Two-line elements (TLE)

Creation date: July 4, 2025, 6:39 p.m.

Reference frame: TEME

Reference center: EARTH

Epoch: July 4, 2025, 2:14 p.m. UTC

TLE line 0: 0 METEOR 1-10

TLE line 1: 1 05731U 71120A 25185.59313651 .00000198 00000-0 10142-3 0 9990

TLE line 2: 2 05731 81.2592 359.1613 0022654 326.5133 33.4605 14.11826999747060

Live tracking on map

Real-time ground track for satellite METEOR 1-10.

In-orbit conjunctions

A list of the most updated potential collisions computed for object METEOR 1-10.

Target Orbit TCA Probability of collision Miss distance Type
FENGYUN 1C DEB SSO 2025-01-16 17:26:30 0.0002162228 650.0 (m) DEBRIS
CZ-6A DEB LEO 2025-01-13 05:24:06 0.0001414748 389.0 (m) DEBRIS
COSMOS 1275 DEB LEO 2025-01-11 07:43:14 0.0001153419 598.0 (m) DEBRIS
COSMOS 1656 LEO 2024-11-12 19:55:20 0.0001631744 299.0 (m) PAYLOAD
CZ-6A DEB SSO 2024-08-28 16:34:10 0.0001099463 214.0 (m) DEBRIS

Associated space launch

The Meteor-1 series was the first series of Soviet meteorological satellites.

METEOR 1-10 was lifted into orbit during the mission ‘Vostok 8A92M | Meteor-1 10 (18L)’, on board a Vostok 8A92M space rocket.

The launch took place on Dec. 29, 1971, 10:50 a.m. from 41/1.

For more information about the launch, click the button.

Launch to space Vostok 8A92M | Meteor-1 10 (18L)
Vostok 8A92M | Meteor-1 10 (18L)

Agency: N/A

Status: Launch Successful

Launch date: Dec. 29, 1971, 10:50 a.m. UTC

Rocket: Vostok 8A92M

Launch pad: 41/1

Location: Plesetsk Cosmodrome, Russian Federation

...

Latest news about this satellite

There are no fresh news available about this satellite. Check back as we update our databases every day.


Newsletter sign-up

Weekly statistics, charts and insights to help you stay on top of the space industry.